Weather History for Chicago Lansing, IL

Change the Weather History Date:

Monday, March 18, 2013

  Actual Average (KMDW) Record (KMDW)
Temperature  
Mean Temperature 29 °F 40 °F  
Max Temperature 35 °F 48 °F 81 °F (2012)
Min Temperature 23 °F 32 °F 3 °F (1941)
Degree Days  
Heating Degree Days 36 25  
Month to date heating degree days 514  
Since 1 July heating degree days 5025  
Cooling Degree Days 0 0  
Month to date cooling degree days 0  
Year to date cooling degree days 0  
Moisture  
Dew Point 26 °F    
Average Humidity 84    
Maximum Humidity 96    
Minimum Humidity 63    
Precipitation  
Precipitation 0.05 in 0.09 in 1.04 in (1952)
Month to date precipitation 1.52  
Year to date precipitation 5.52  
Sea Level Pressure  
Sea Level Pressure 29.75 in    
Wind  
Wind Speed 11 mph (SSE)    
Max Wind Speed 32 mph    
Max Gust Speed 43 mph    
Visibility 7 miles    
Events Rain , Snow    
T = Trace of Precipitation, MM = Missing Value Source: NWS Daily Summary

Daily Weather History Graph

Daily Weather History Graph

Search for Another Location

Airport:

Trip Planner

Search our weather history database for the weather conditions in past years. The results will help you decide how hot, cold, wet, or windy it might be!

Date:

Astronomy

Mar. 18, 2013 Rise Set
Actual Time 6:56 AM CDT 7:00 PM CDT
Civil Twilight 6:28 AM CDT 7:28 PM CDT
Nautical Twilight 5:56 AM CDT 8:00 PM CDT
Astronomical Twilight 5:23 AM CDT 8:33 PM CDT
Moon 10:51 AM CDT (3/18) 1:03 AM CDT (3/18)
Length of Visible Light 12h 59m
Length of Day
12h 03m
Waxing Crescent, 41% of the Moon is Illuminated
Mar 18
Waxing Crescent
Mar 19
First Quarter
Mar 27
Full
Apr 2
Last Quarter
Apr 10
New

Hourly Weather History & Observations

Time (CDT) Temp. Windchill Dew Point Humidity Pressure Visibility Wind Dir Wind Speed Gust Speed Precip Events Conditions
12:15 AM 30.2 °F 20.8 °F 22.5 °F 73% 29.99 in 10.0 mi ESE 11.5 mph 19.6 mph N/A   Clear
12:35 AM 30.2 °F 21.3 °F 22.6 °F 73% 29.99 in 10.0 mi ESE 10.4 mph 18.4 mph N/A   Clear
12:55 AM 30.2 °F 20.2 °F 22.8 °F 74% 29.98 in 10.0 mi ESE 12.7 mph 17.3 mph N/A   Mostly Cloudy
1:15 AM 29.8 °F 19.8 °F 22.6 °F 75% 29.96 in 10.0 mi East 12.7 mph - N/A   Scattered Clouds
1:35 AM 29.7 °F 19.1 °F 22.3 °F 74% 29.95 in 10.0 mi ESE 13.8 mph 18.4 mph N/A   Clear
1:55 AM 29.3 °F 20.8 °F 22.5 °F 76% 29.94 in 10.0 mi East 9.2 mph - N/A   Clear
2:15 AM 29.3 °F 20.8 °F 22.5 °F 76% 29.94 in 10.0 mi East 9.2 mph - N/A   Scattered Clouds
2:35 AM 29.7 °F 21.3 °F 22.8 °F 76% 29.92 in 10.0 mi East 9.2 mph - N/A   Mostly Cloudy
2:55 AM 30.2 °F 20.8 °F 23.0 °F 75% 29.91 in 10.0 mi ESE 11.5 mph - N/A   Overcast
3:15 AM 30.0 °F 19.5 °F 23.0 °F 75% 29.89 in 10.0 mi East 13.8 mph - N/A   Overcast
3:35 AM 30.2 °F 21.3 °F 23.0 °F 75% 29.88 in 10.0 mi East 10.4 mph - N/A   Overcast
3:55 AM 30.2 °F 20.8 °F 23.7 °F 77% 29.85 in 10.0 mi East 11.5 mph 16.1 mph N/A Snow Light Snow
4:15 AM 30.2 °F 22.6 °F 24.1 °F 78% 29.84 in 10.0 mi East 8.1 mph - N/A   Overcast
4:35 AM 30.2 °F 23.4 °F 24.8 °F 80% 29.83 in 10.0 mi East 6.9 mph - N/A   Overcast
4:55 AM 30.2 °F 22.6 °F 25.0 °F 81% 29.82 in 10.0 mi East 8.1 mph - N/A   Overcast
5:15 AM 30.2 °F 23.4 °F 25.3 °F 82% 29.81 in 10.0 mi East 6.9 mph - N/A   Overcast
5:35 AM 30.2 °F 23.4 °F 25.5 °F 83% 29.80 in 10.0 mi ENE 6.9 mph - N/A   Overcast
5:55 AM 30.2 °F 22.6 °F 25.7 °F 83% 29.80 in 10.0 mi East 8.1 mph - N/A   Overcast
6:15 AM 30.2 °F 21.3 °F 25.7 °F 83% 29.78 in 10.0 mi East 10.4 mph - N/A   Overcast
6:35 AM 30.2 °F 22.6 °F 26.4 °F 86% 29.78 in 10.0 mi East 8.1 mph - N/A   Overcast
6:55 AM 30.2 °F 23.4 °F 26.8 °F 87% 29.77 in 7.0 mi East 6.9 mph - N/A   Overcast
7:15 AM 30.2 °F 22.6 °F 27.1 °F 88% 29.76 in 7.0 mi East 8.1 mph - N/A   Overcast
7:35 AM 30.2 °F 21.9 °F 27.7 °F 90% 29.75 in 4.0 mi East 9.2 mph - N/A   Overcast
7:55 AM 30.2 °F 24.3 °F 28.2 °F 92% 29.74 in 3.0 mi ENE 5.8 mph - N/A   Overcast
8:15 AM 30.2 °F 24.3 °F 28.4 °F 93% 29.73 in 2.5 mi East 5.8 mph - N/A   Overcast
8:35 AM 30.2 °F 24.3 °F 28.6 °F 94% 29.72 in 3.0 mi East 5.8 mph - N/A   Overcast
8:55 AM 30.7 °F 24.1 °F 29.1 °F 94% 29.72 in 3.0 mi East 6.9 mph - N/A   Overcast
9:15 AM 30.9 °F 26.2 °F 29.3 °F 94% 29.71 in 2.5 mi East 4.6 mph - N/A   Overcast
9:35 AM 31.1 °F 24.5 °F 29.3 °F 93% 29.70 in 2.5 mi East 6.9 mph - N/A   Overcast
9:55 AM 31.1 °F 24.5 °F 29.7 °F 94% 29.69 in 1.8 mi East 6.9 mph - N/A   Overcast
10:15 AM 31.1 °F 25.4 °F 29.8 °F 95% 29.68 in 1.2 mi East 5.8 mph - N/A   Light Freezing Rain
10:35 AM 31.5 °F 24.9 °F 30.2 °F 95% 29.68 in 1.8 mi ESE 6.9 mph - N/A   Overcast
10:55 AM 31.6 °F 27.0 °F 30.2 °F 94% 29.68 in 2.5 mi ESE 4.6 mph - N/A   Light Freezing Rain
11:15 AM 31.6 °F 26.0 °F 30.2 °F 94% 29.67 in 3.0 mi East 5.8 mph - N/A   Overcast
11:35 AM 31.8 °F 28.5 °F 30.2 °F 94% 29.66 in 5.0 mi ESE 3.5 mph - 0.01 in   Overcast
11:55 AM 32.0 °F - 30.6 °F 94% 29.66 in 7.0 mi Calm Calm - 0.01 in   Overcast
12:15 PM 32.0 °F 26.4 °F 30.9 °F 96% 29.65 in 4.0 mi SE 5.8 mph - 0.01 in   Light Drizzle
12:35 PM 32.0 °F - 31.1 °F 96% 29.64 in 4.0 mi Calm Calm - 0.02 in   Overcast
12:55 PM 32.2 °F 27.7 °F 31.1 °F 96% 29.64 in 7.0 mi South 4.6 mph - 0.03 in   Overcast
1:15 PM 32.5 °F 29.3 °F 31.1 °F 94% 29.63 in 5.0 mi SSW 3.5 mph - 0.01 in   Overcast
1:35 PM 32.9 °F 28.5 °F 32.0 °F 96% 29.63 in 2.0 mi SW 4.6 mph - 0.01 in   Overcast
1:55 PM 32.9 °F 28.5 °F 32.0 °F 96% 29.63 in 1.5 mi SSW 4.6 mph - 0.01 in   Light Drizzle
2:15 PM 32.9 °F 26.7 °F 32.0 °F 96% 29.63 in 2.0 mi SW 6.9 mph - N/A   Overcast
2:35 PM 33.1 °F 26.9 °F 32.0 °F 96% 29.62 in 2.5 mi SW 6.9 mph - N/A   Overcast
2:55 PM 33.8 °F 25.8 °F 32.0 °F 93% 29.62 in 4.0 mi WSW 10.4 mph - N/A   Overcast
3:15 PM 33.6 °F 24.6 °F 32.0 °F 94% 29.62 in 10.0 mi West 12.7 mph 16.1 mph N/A   Overcast
3:35 PM 33.3 °F 24.6 °F 32.0 °F 95% 29.62 in 5.0 mi WSW 11.5 mph 17.3 mph N/A Rain Light Rain
3:55 PM 33.8 °F 25.8 °F 32.2 °F 94% 29.62 in 5.0 mi WSW 10.4 mph - N/A Snow Light Snow
4:15 PM 34.7 °F 25.9 °F 32.2 °F 91% 29.63 in 10.0 mi WSW 12.7 mph - N/A   Overcast
4:35 PM 34.7 °F 25.5 °F 32.0 °F 90% 29.63 in 10.0 mi West 13.8 mph 21.9 mph N/A Snow Light Snow
4:55 PM 34.9 °F 26.2 °F 32.0 °F 89% 29.63 in 7.0 mi West 12.7 mph 19.6 mph N/A   Light Drizzle
5:15 PM 34.9 °F 26.2 °F 32.0 °F 89% 29.64 in 10.0 mi West 12.7 mph - N/A   Overcast
5:35 PM 34.7 °F 24.3 °F 32.0 °F 90% 29.64 in 10.0 mi West 17.3 mph 21.9 mph N/A   Overcast
5:55 PM 35.1 °F 25.9 °F 32.0 °F 89% 29.65 in 10.0 mi West 13.8 mph 20.7 mph N/A   Overcast
6:15 PM 35.2 °F 25.4 °F 32.0 °F 88% 29.66 in 10.0 mi West 16.1 mph 24.2 mph N/A   Overcast
6:35 PM 35.6 °F 26.2 °F 32.0 °F 87% 29.66 in 10.0 mi West 15.0 mph 24.2 mph N/A   Overcast
6:55 PM 35.2 °F 25.0 °F 32.0 °F 88% 29.67 in 5.0 mi West 17.3 mph 25.3 mph N/A   Light Drizzle
7:15 PM 32.9 °F 20.1 °F 30.2 °F 90% 29.69 in 5.0 mi West 24.2 mph 39.1 mph N/A   Overcast
7:35 PM 32.0 °F 19.2 °F 28.2 °F 86% 29.71 in 7.0 mi West 23.0 mph 42.6 mph N/A   Overcast
7:55 PM 32.0 °F 17.2 °F 24.8 °F 75% 29.72 in 10.0 mi West 32.2 mph 38.0 mph N/A   Overcast
8:15 PM 29.8 °F 16.3 °F 22.1 °F 73% 29.73 in 10.0 mi West 23.0 mph 35.7 mph N/A   Overcast
8:35 PM 29.1 °F 15.1 °F 21.0 °F 72% 29.74 in 10.0 mi West 24.2 mph 36.8 mph N/A   Overcast
8:55 PM 27.5 °F 13.5 °F 18.9 °F 70% 29.76 in 10.0 mi West 21.9 mph 39.1 mph N/A   Overcast
9:15 PM 27.1 °F 13.8 °F 18.7 °F 70% 29.76 in 10.0 mi West 19.6 mph 36.8 mph N/A   Overcast
9:35 PM 26.6 °F 10.3 °F 17.4 °F 68% 29.77 in 10.0 mi West 29.9 mph 39.1 mph N/A   Overcast
9:55 PM 26.1 °F 12.7 °F 16.3 °F 67% 29.78 in 10.0 mi West 18.4 mph 36.8 mph N/A   Overcast
10:15 PM 26.2 °F 12.2 °F 17.4 °F 69% 29.78 in 3.0 mi West 20.7 mph 29.9 mph N/A   Haze
10:35 PM 25.5 °F 9.7 °F 15.8 °F 67% 29.79 in 10.0 mi West 26.5 mph 42.6 mph N/A Snow Light Snow
10:55 PM 24.6 °F 7.9 °F 13.5 °F 63% 29.80 in 10.0 mi West 28.8 mph 36.8 mph N/A   Overcast
11:15 PM 24.3 °F 8.0 °F 14.0 °F 65% 29.80 in 10.0 mi West 26.5 mph 35.7 mph N/A   Overcast
11:35 PM 23.9 °F 8.4 °F 14.4 °F 67% 29.81 in 3.0 mi West 23.0 mph 28.8 mph N/A   Haze
11:55 PM 23.7 °F 7.2 °F 14.5 °F 68% 29.81 in 10.0 mi West 26.5 mph 32.2 mph N/A Snow Light Snow